Helicity
89 99 109 120 120 124 125 112 105 104 95 96 105 124 141 125 119 21 28 34 33 43 48 35 60 108 132 81 65 109 121 56 42 22 -90 23 -23 29 47 38 122 54 141 183 182
73 78 87 93 101 106 112 117 119 115 106 110 123 140 121 98 64 67 43 56 47 43 37 69 94 119 112 73 125 144 123 44 47 58 35 60 -17 117 53 8 188 254 224 239 216
70 75 72 72 70 73 80 90 105 115 118 120 127 141 127 110 36 59 22 11 29 55 74 85 60 103 75 80 82 113 96 56 55 69 95 148 51 96 118 45 141 217 232 183 244
50 52 60 62 59 53 60 74 86 96 110 131 149 169 185 27 123 34 -63 -33 66 72 129 127 146 109 102 93 97 84 69 48 24 86 101 156 73 80 32 105 16 216 280 278 295
56 65 75 76 74 75 78 71 63 68 77 81 94 117 80 120 176 54 -7 34 46 106 112 151 145 161 145 100 134 131 66 69 33 56 89 86 108 87 69 93 42 155 316 267 268
49 54 56 53 55 64 69 71 75 71 51 37 42 60 58 115 110 71 40 29 46 74 119 153 150 215 144 137 151 180 236 155 91 75 78 141 125 103 50 125 109 25 198 243 197
49 51 51 53 67 80 89 87 92 42 20 20 23 23 77 65 76 75 50 65 85 93 74 85 123 196 240 194 165 169 148 122 117 88 67 97 145 123 73 52 88 89 112 202 179
61 63 68 74 101 106 100 85 44 -16 -29 -8 6 9 36 28 28 48 59 77 72 97 68 73 67 128 137 136 149 91 147 100 138 119 78 165 111 93 117 20 43 138 66 162 179
67 68 75 108 132 123 129 124 20 -21 -11 -22 12 52 45 7 39 34 13 30 63 82 83 70 85 104 166 197 139 143 180 184 105 141 171 203 122 78 84 126 119 98 132 118 152
65 67 79 103 107 131 200 111 -23 1 55 32 40 45 14 35 31 20 16 16 42 63 107 78 107 125 153 208 211 192 194 151 119 164 135 139 125 132 80 98 82 126 186 129 104
51 52 55 74 85 149 160 12 12 28 9 16 9 9 -2 5 -8 10 -4 3 11 69 104 186 183 151 135 87 98 121 175 175 124 81 100 119 139 73 102 83 85 95 127 158 50
47 53 61 73 77 76 23 -2 8 4 -4 -64 -27 -18 -14 -2 24 -26 24 5 19 10 52 152 236 150 97 93 93 130 150 165 100 131 216 230 99 94 57 89 82 95 105 118 89
52 66 73 68 70 21 18 17 4 -34 12 -42 -14 -40 -15 -0 4 8 14 15 27 21 50 45 86 207 232 204 114 133 150 179 153 121 107 149 211 110 72 95 78 168 92 101 106
61 77 89 103 -4 53 14 -25 -20 -19 40 -11 -32 8 -1 13 11 74 25 7 39 41 53 47 30 89 264 267 144 162 93 120 167 203 189 67 141 130 158 222 39 172 171 97 59
60 74 98 75 10 15 -41 -51 -34 -9 61 -16 13 33 2 -11 -4 59 45 81 78 58 70 95 -1 61 136 255 160 109 65 55 114 140 175 129 177 95 48 387 76 127 190 136 83
62 66 68 8 50 -2 -64 22 1 22 21 14 53 12 -7 6 24 26 31 46 103 48 4 39 67 4 52 86 178 173 120 79 29 77 171 178 146 125 61 206 156 125 90 72 48
56 61 50 25 -1 -46 16 22 39 18 5 42 30 -1 11 12 30 62 47 83 120 109 32 13 31 29 45 64 103 140 137 139 206 264 204 74 131 124 67 92 181 223 130 74 153
41 38 -18 25 1 -13 7 33 53 -2 31 18 -2 -2 18 80 54 59 115 117 161 103 64 67 8 36 77 131 82 31 40 122 198 197 195 110 130 123 82 -75 17 78 157 48 93
43 8 18 47 -2 7 26 49 21 23 44 23 -4 27 56 26 60 66 103 168 130 85 141 76 95 153 47 62 22 41 45 83 93 96 138 70 180 159 42 72 38 49 106 68 37
16 4 46 11 1 18 42 27 23 37 43 37 31 57 49 27 51 61 89 181 105 61 69 85 64 34 150 19 52 17 5 62 156 138 167 85 65 182 123 24 21 -17 25 -31 22
19 33 16 12 31 46 47 22 26 42 33 55 61 64 53 46 59 51 77 176 80 59 43 92 59 43 -1 71 114 126 -76 17 27 -10 14 62 144 20 -48 -31 -47 55 138 154 205
48 61 29 36 62 52 36 24 29 43 45 46 48 59 78 56 87 68 78 131 48 64 101 73 50 67 37 172 17 -55 -31 -20 -3 47 68 29 46 114 -62 13 90 111 116 276 365
74 63 38 47 80 58 24 31 35 38 54 75 65 84 64 81 96 83 53 5 51 111 164 62 114 10 -62 33 40 66 21 -8 12 -23 39 74 -31 -2 80 -18 39 68 72 110 240
81 80 78 94 77 49 60 48 50 72 58 70 57 48 82 70 78 137 54 67 -32 -31 -0 62 140 121 96 -39 -93 43 107 47 -31 -71 4 -32 90 173 81 -43 1 -24 -40 42 27
99 75 73 82 61 52 57 59 58 64 73 71 79 84 81 101 51 85 76 -25 4 34 65 131 162 74 13 -21 -47 -55 29 44 30 7 -18 -51 -20 -37 -62 -50 -69 -6 -31 6 75
98 97 86 90 94 66 63 68 55 48 83 95 75 63 79 105 108 48 41 75 108 103 100 83 194 62 -35 -19 -19 -31 -35 9 17 6 4 7 -1 -19 -25 -20 10 -139 33 109 118
103 110 114 93 79 78 77 70 46 82 79 82 62 73 78 64 74 97 112 117 153 107 81 101 127 146 115 23 -38 -10 81 23 44 69 54 50 -3 26 9 28 79 -73 -34 -19 113
Wind_Speed
41 43 45 48 49 51 53 55 56 57 58 60 62 63 63 66 68 49 47 47 52 60 63 63 60 60 63 52 49 49 54 70 75 69 64 58 59 55 39 28 7 15 7 31 41
42 44 46 48 50 52 54 56 57 58 59 61 63 63 64 65 56 44 44 50 55 57 59 60 63 62 60 59 54 49 63 69 64 81 79 68 69 63 50 52 21 13 14 38 38
43 45 47 49 51 52 54 56 58 60 61 62 63 63 64 62 40 41 43 48 50 49 53 58 62 62 67 63 60 60 85 81 88 86 83 80 73 65 54 53 13 8 19 29 28
42 44 46 49 51 52 55 57 59 60 61 62 63 63 63 39 48 42 43 48 56 58 57 56 57 63 67 68 61 82 87 86 90 85 86 87 73 72 56 54 15 11 24 27 23
40 42 45 47 49 52 55 56 58 59 59 59 58 57 43 39 42 48 53 58 60 60 56 59 59 62 71 74 77 87 88 90 97 91 90 84 85 75 75 65 37 11 17 24 27
40 42 45 47 49 51 52 53 54 55 55 54 51 50 37 36 50 52 57 58 59 59 62 58 55 67 72 76 78 77 88 89 93 98 94 87 91 74 80 64 62 12 19 23 22
37 39 41 42 44 47 50 51 53 53 53 50 44 38 36 42 46 54 61 62 63 62 62 62 65 65 71 78 70 83 96 96 96 90 96 81 102 88 77 69 74 54 24 28 27
38 39 41 43 45 47 48 48 45 43 47 42 39 35 36 38 48 61 63 64 63 65 65 63 61 72 71 69 79 84 86 97 96 91 94 76 106 95 76 72 82 74 50 36 36
40 41 43 45 46 50 53 51 46 20 33 37 39 36 36 42 62 63 58 62 66 61 60 62 62 69 74 85 96 82 100 95 98 82 86 86 103 91 81 80 84 89 79 52 46
40 43 45 46 48 52 54 47 36 39 31 32 29 39 42 55 59 62 58 61 66 65 69 56 61 75 78 82 110 97 102 102 105 81 77 109 111 91 94 88 93 84 90 86 64
43 45 46 46 45 48 52 39 44 42 44 40 41 40 46 52 55 57 62 67 61 68 78 71 80 91 88 87 100 107 113 118 107 92 97 105 104 110 92 96 95 93 87 87 88
44 45 46 45 43 42 54 45 43 36 40 36 35 36 45 43 54 61 62 69 71 82 80 82 92 84 84 88 99 107 115 126 121 104 98 96 98 95 100 101 90 89 84 86 88
43 43 44 42 37 45 51 52 47 41 34 38 36 39 48 43 51 62 72 66 70 79 82 86 90 94 93 95 98 111 118 118 118 103 108 107 118 103 100 94 87 91 87 82 82
39 39 39 40 39 48 48 55 48 39 36 41 40 40 52 54 39 51 59 58 68 80 81 73 75 84 94 99 93 113 103 111 115 106 118 88 128 104 97 99 83 77 81 75 81
38 39 36 32 38 48 52 53 46 38 44 49 43 40 58 60 56 53 45 52 65 75 72 76 81 82 92 94 91 96 85 105 113 107 111 104 107 109 92 100 86 72 74 83 81
40 40 39 42 36 48 49 16 37 43 49 41 44 61 65 59 50 54 64 58 46 65 60 70 65 72 83 80 89 92 96 99 99 104 128 113 107 115 103 93 83 72 74 77 75
41 38 36 27 41 50 12 40 45 52 38 47 55 60 55 50 52 69 74 72 64 81 88 80 67 75 37 70 84 82 83 100 106 107 117 106 102 102 90 87 79 76 76 68 69
44 41 29 41 47 43 42 41 50 41 47 53 57 56 46 64 60 66 62 61 60 68 62 68 77 68 72 64 67 71 68 76 102 106 111 104 108 96 90 97 98 93 88 75 72
46 33 36 46 43 44 41 48 42 43 46 50 56 49 51 66 59 65 64 56 59 67 58 43 39 35 53 61 52 57 78 70 79 82 97 90 86 88 95 96 102 97 95 85 72
40 33 36 42 43 40 40 39 38 39 45 45 48 49 56 61 58 66 48 51 52 52 47 35 36 34 64 56 48 58 50 63 60 75 94 87 86 82 61 83 81 88 97 96 80
32 31 36 42 38 39 39 35 34 43 41 44 45 43 47 55 58 50 36 43 52 49 50 40 27 25 29 52 63 66 48 45 45 49 74 85 80 57 58 57 54 45 44 48 54
33 33 38 40 36 38 36 38 38 34 39 38 36 37 45 58 46 42 34 44 44 43 47 40 25 24 17 29 40 35 41 46 48 57 58 64 90 85 66 57 52 56 53 52 44
32 32 32 34 31 34 35 34 34 35 37 38 38 41 47 48 44 36 40 40 46 55 46 42 31 35 16 31 46 46 47 54 56 52 59 64 79 69 84 63 64 65 63 61 57
30 31 34 33 27 32 35 36 36 33 35 34 34 39 40 47 38 37 33 34 45 37 31 23 19 17 13 9 15 71 71 64 61 60 68 70 82 75 80 76 70 63 68 74 68
32 31 29 31 31 27 34 35 38 38 32 36 34 39 47 48 47 31 38 25 42 34 37 35 26 22 13 11 16 42 74 76 73 73 78 78 82 84 78 79 76 72 71 71 70
30 32 32 32 23 26 28 32 34 35 38 38 38 42 47 45 41 42 49 44 32 38 38 35 28 24 22 14 14 27 60 82 81 80 78 78 83 70 70 63 69 62 56 57 57
34 32 34 35 32 27 30 31 29 36 41 40 37 39 43 38 41 43 36 28 21 21 21 22 26 29 31 26 24 22 15 11 67 71 74 75 69 76 79 78 76 64 62 59 60
Wind_Direction
315 315 315 314 313 311 309 308 308 309 307 305 304 302 302 303 302 307 302 302 300 298 293 292 292 289 285 285 284 281 274 263 253 252 250 288 304 277 299 308 352 301 61 120 120
317 317 316 315 313 311 310 308 307 306 305 303 303 303 302 303 307 310 309 309 304 306 296 290 287 287 283 279 280 273 269 266 266 253 256 284 290 291 276 265 298 324 83 122 124
319 317 316 315 313 311 311 311 307 306 305 304 303 303 300 300 309 311 321 318 314 312 307 295 287 286 277 279 273 274 263 267 261 259 264 274 283 289 282 264 269 171 142 140 135
319 317 315 314 314 315 314 311 308 308 305 304 305 305 301 321 298 316 324 321 314 307 307 303 295 281 278 274 278 269 268 267 264 265 266 267 277 276 284 267 307 182 170 166 165
308 308 305 305 306 304 303 301 303 305 304 305 307 310 320 315 317 320 318 314 311 310 303 300 294 289 279 276 277 268 269 269 263 266 265 271 267 272 271 271 301 232 200 185 176
307 307 306 304 302 300 298 298 298 299 302 313 319 320 329 316 323 324 323 319 314 308 301 300 294 294 285 279 274 277 276 271 266 262 263 268 264 271 264 274 274 275 215 207 201
297 298 299 296 295 294 295 297 297 300 315 326 336 340 334 322 333 325 323 318 315 312 299 297 293 290 290 282 284 279 273 271 265 264 262 270 263 261 265 270 265 278 245 228 223
300 297 296 296 293 293 290 285 280 280 332 348 355 348 335 350 339 328 325 319 316 312 305 303 294 286 283 286 282 277 274 267 263 264 262 266 263 261 265 266 265 266 276 246 235
303 302 302 299 297 301 299 291 284 63 26 6 353 353 341 347 327 327 337 331 324 321 316 307 297 283 281 277 273 271 267 267 268 264 263 261 263 263 265 264 263 263 265 269 249
303 309 308 306 307 310 306 299 8 14 27 21 27 344 347 330 333 334 347 342 334 325 317 312 298 281 276 270 264 267 266 267 265 266 267 260 262 264 263 264 262 263 262 263 264
309 311 312 309 307 312 324 1 348 350 358 355 355 356 348 346 346 346 348 341 344 333 313 312 292 278 276 271 269 268 266 264 265 267 266 264 265 262 264 262 260 260 260 260 260
311 312 313 308 301 305 358 11 12 10 350 5 13 7 359 360 349 350 354 345 340 330 327 309 292 289 284 274 269 266 264 262 264 266 267 268 267 266 262 260 258 258 259 259 259
310 309 307 301 293 358 7 2 3 358 7 4 16 8 360 4 353 351 353 349 342 336 330 315 302 293 285 278 269 264 263 263 264 267 265 267 265 267 266 262 259 255 258 258 260
299 299 298 295 5 329 13 352 359 9 358 360 4 6 359 356 356 3 5 359 350 342 335 325 320 296 284 277 276 265 264 264 263 263 258 263 262 262 263 264 258 256 251 258 262
293 296 293 290 32 9 351 354 10 19 341 347 357 12 354 350 349 356 14 4 355 350 347 331 319 305 281 277 278 275 273 262 260 261 260 257 260 258 261 262 254 259 263 259 263
293 297 300 358 39 6 323 96 46 13 352 5 360 341 341 349 2 5 4 8 10 359 358 345 333 315 289 276 276 279 274 268 262 258 255 255 253 256 254 258 261 262 267 266 269
291 285 286 60 17 318 30 35 15 9 26 4 351 344 352 360 0 355 354 358 5 356 353 351 344 333 323 284 276 273 273 262 256 253 254 255 256 253 256 258 264 269 268 273 278
292 282 24 5 357 14 25 25 11 27 17 0 353 350 7 353 353 357 2 6 13 9 3 2 344 343 300 299 292 276 273 265 258 257 257 259 254 255 261 261 265 269 270 274 278
290 356 7 346 359 8 18 9 21 21 18 12 0 9 3 347 356 357 1 15 16 15 15 13 5 295 343 301 304 290 270 272 275 269 259 260 264 274 260 262 262 268 268 271 278
314 336 350 353 351 10 12 20 25 26 20 20 14 10 0 354 1 356 13 20 17 22 21 18 357 19 297 302 288 303 294 272 272 265 257 260 259 261 274 260 267 270 271 270 274
334 347 342 338 7 3 8 20 27 13 22 21 15 15 11 3 359 6 18 19 17 17 20 17 21 350 0 322 293 286 303 292 284 283 266 264 259 263 273 299 300 312 313 307 282
327 334 338 337 356 1 9 6 11 23 19 21 23 21 9 358 9 12 21 16 22 20 16 22 13 2 303 255 335 324 303 310 291 288 287 276 263 260 279 298 308 298 303 308 302
321 331 344 351 355 1 5 10 8 12 16 18 18 15 7 5 11 17 8 7 9 7 13 17 27 8 359 38 316 319 306 305 295 292 289 284 269 278 271 285 291 294 292 296 295
318 322 325 340 358 359 360 2 7 12 11 17 16 9 14 3 7 6 358 8 360 1 360 2 17 21 6 302 276 282 290 285 280 288 289 286 273 275 275 280 291 297 297 289 287
307 313 324 330 336 350 350 353 354 360 7 7 13 8 2 1 356 359 3 343 359 6 16 20 11 13 336 296 269 255 268 286 284 281 280 282 282 277 279 280 290 299 294 290 290
303 308 314 320 340 347 348 348 350 353 355 354 354 354 354 355 355 350 353 358 2 5 12 11 11 357 334 318 281 261 254 278 282 283 284 283 275 289 293 297 297 307 312 313 302
296 305 309 312 319 327 332 340 350 351 347 347 351 352 350 350 353 350 347 336 318 313 333 349 3 9 4 17 355 340 333 256 292 292 294 286 285 291 288 289 291 301 303 310 309